Mullan Pass, ID

7:01 AM PDT on October 21, 2019 (GMT -0700)
Mullan Pass

Weather History for KMLP - August, 2019

Change the Weather History Date:

Friday, August 23, 2019

  Actual Average (K3TH) Record (K3TH)
Temperature  
Mean Temperature 57 °F -  
Max Temperature 66 °F 83 °F 96 °F (1999)
Min Temperature 50 °F 52 °F 46 °F (1996)
Degree Days  
Heating Degree Days 8    
Growing Degree Days 7 (Base 50)    
Moisture  
Dew Point 48 °F    
Average Humidity 69    
Maximum Humidity 93    
Minimum Humidity 58    
Precipitation  
Precipitation 0.00 in - - ()
Sea Level Pressure  
Sea Level Pressure 29.89 in    
Wind  
Wind Speed 3 mph (WNW)    
Max Wind Speed 6 mph    
Max Gust Speed -    
Visibility 10 miles    
Events      
Averages and records for this station are not official NWS values.
T = Trace of Precipitation, MM = Missing Value Source: NWS Daily Summary

Daily Weather History Graph

Daily Weather History Graph

Search for Another Location

Airport or City:

Astronomy

Aug. 23, 2019 Rise Set
Actual Time 5:49 AM PDT 7:40 PM PDT
Civil Twilight 5:16 AM PDT 8:13 PM PDT
Nautical Twilight 4:36 AM PDT 8:53 PM PDT
Astronomical Twilight 3:51 AM PDT 9:37 PM PDT
Moon 11:37 PM PDT (8/23) 2:02 PM PDT (8/23)
Length of Visible Light 14h 56m
Length of Day
13h 51m
Waning Gibbous, 48% of the Moon is Illuminated
Aug 23
Waning Gibbous
Aug 30
New
Sep 5
First Quarter
Sep 13
Full
Sep 21
Last Quarter

Hourly Weather History & Observations

Time (PDT) Temp. Dew Point Humidity Pressure Visibility Wind Dir Wind Speed Gust Speed Precip Events Conditions
12:53 AM 50.0 °F 48.0 °F 93% 29.91 in 10.0 mi NW 4.6 mph - N/A   Clear
1:53 AM 51.1 °F 46.9 °F 86% 29.90 in 10.0 mi NW 4.6 mph - N/A   Clear
2:53 AM 50.0 °F 46.0 °F 86% 29.92 in 10.0 mi Variable 3.5 mph - N/A   Clear
3:53 AM 50.0 °F 46.0 °F 86% 29.93 in 10.0 mi NW 3.5 mph - N/A   Clear
4:53 AM 51.1 °F 46.0 °F 83% 29.91 in 10.0 mi NW 4.6 mph - N/A   Clear
6:53 AM 53.1 °F 45.0 °F 74% 29.91 in 10.0 mi Calm Calm - N/A   Clear
7:53 AM 55.9 °F 48.0 °F 75% 29.90 in 10.0 mi Calm Calm - N/A   Clear
8:53 AM 57.0 °F 50.0 °F 77% 29.90 in 10.0 mi Calm Calm - N/A   Clear
9:53 AM 59.0 °F 46.9 °F 64% 29.89 in 10.0 mi Calm Calm - N/A   Clear
10:53 AM 57.9 °F 48.0 °F 70% 29.89 in 10.0 mi SE 4.6 mph - N/A   Clear
11:53 AM 62.1 °F 48.9 °F 62% 29.87 in 10.0 mi Variable 3.5 mph - N/A   Clear
12:35 PM 63.0 °F 48.9 °F 60% 30.10 in 10.0 mi Variable 3.5 mph - N/A   Mostly Cloudy
12:53 PM 61.0 °F 48.0 °F 62% 29.86 in 10.0 mi Calm Calm - N/A   Mostly Cloudy
1:11 PM 63.0 °F 48.9 °F 60% 30.09 in 10.0 mi Calm Calm - N/A   Scattered Clouds
1:22 PM 64.0 °F 48.9 °F 58% 30.10 in 10.0 mi Variable 3.5 mph - N/A   Mostly Cloudy
1:51 PM 62.6 °F 50.0 °F 63% 30.09 in 10.0 mi Variable 3.5 mph - N/A   Mostly Cloudy
1:53 PM 64.0 °F 50.0 °F 60% 29.83 in 10.0 mi Calm Calm - N/A   Mostly Cloudy
2:53 PM 63.0 °F 48.9 °F 60% 29.82 in 10.0 mi Calm Calm - N/A   Partly Cloudy
3:53 PM 64.0 °F 48.9 °F 58% 29.81 in 10.0 mi NNW 3.5 mph - N/A   Clear
4:53 PM 63.0 °F 50.0 °F 63% 29.80 in 10.0 mi Calm Calm - N/A   Clear
5:53 PM 61.0 °F 48.9 °F 64% 29.80 in 10.0 mi NW 4.6 mph - N/A   Partly Cloudy
6:53 PM 57.9 °F 48.0 °F 70% 29.80 in 10.0 mi WNW 3.5 mph - N/A   Partly Cloudy
7:53 PM 55.9 °F 46.9 °F 72% 29.80 in 10.0 mi WNW 3.5 mph - N/A   Mostly Cloudy
8:53 PM 55.0 °F 46.0 °F 72% 29.81 in 10.0 mi NNW 3.5 mph - N/A   Clear
9:53 PM 55.9 °F 45.0 °F 67% 29.78 in 10.0 mi SSW 3.5 mph - N/A   Mostly Cloudy
10:53 PM 57.0 °F 45.0 °F 64% 29.78 in 10.0 mi Variable 3.5 mph - N/A   Overcast
11:53 PM 57.0 °F 45.0 °F 64% 29.76 in 10.0 mi SW 5.8 mph - N/A   Mostly Cloudy